Location: Svitavy
(49.7500°N, 16.4667°E)
Time: 21:53:15
(UTC+02:00)

ISS - Visible Passes

Search period start: 26 June 2019 00:00
Search period end: 06 July 2019 00:00
Orbit: 407 x 419 km, 51.6° (Epoch: 26 June)

Date Brightness Start Highest point End Pass type
(mag) Time Alt. Az. Time Alt. Az. Time Alt. Az.
02 Jul -1.1 03:27:06 10° SE 03:27:17 10° SE 03:27:27 10° SE visible
04 Jul -2.1 03:22:30 14° S 03:24:23 21° SE 03:26:59 10° E visible
05 Jul -1.6 02:34:38 14° SE 02:34:59 14° SE 02:36:48 10° ESE visible
